Tiempo cada hora Alkadar

Hoy, 3 Agosto, Martes

Tiempo Temperatura Precipitaciones Viento Presión Humedad
00:00 +22°C° 0 mm 3 mps 705 mmHg 30%
01:00 +22°C° 0 mm 3 mps 705 mmHg 30%
02:00 +22°C° 0 mm 3 mps 705 mmHg 30%
03:00 +22°C° 0 mm 3 mps 705 mmHg 29%
04:00 +22°C° 0 mm 3 mps 705 mmHg 30%
05:00 +24°C° 0 mm 3 mps 706 mmHg 31%
06:00 +25°C° 0 mm 2 mps 706 mmHg 31%
07:00 +27°C° 0 mm 2 mps 706 mmHg 27%
08:00 +30°C° 0 mm 2 mps 707 mmHg 22%
09:00 +32°C° 0 mm 2 mps 707 mmHg 18%
10:00 +34°C° 0 mm 3 mps 707 mmHg 17%
11:00 +35°C° 0 mm 4 mps 706 mmHg 17%
12:00 +36°C° 0 mm 6 mps 706 mmHg 17%
13:00 +36°C° 0 mm 6 mps 706 mmHg 18%
14:00 +35°C° 0 mm 6 mps 706 mmHg 19%
15:00 +35°C° 0 mm 6 mps 706 mmHg 20%
16:00 +34°C° 0 mm 5 mps 706 mmHg 23%
17:00 +33°C° 0 mm 4 mps 706 mmHg 26%
18:00 +30°C° 0 mm 2 mps 706 mmHg 29%
19:00 +29°C° 0 mm 2 mps 706 mmHg 31%
20:00 +27°C° 0 mm 3 mps 706 mmHg 34%
21:00 +25°C° 0 mm 3 mps 706 mmHg 36%
22:00 +24°C° 0 mm 3 mps 706 mmHg 35%
23:00 +24°C° 0 mm 3 mps 706 mmHg 33%

Mañana, 4 Agosto, Miércoles

Tiempo Temperatura Precipitaciones Viento Presión Humedad
00:00 +24°C° 0 mm 3 mps 706 mmHg 32%
01:00 +24°C° 0 mm 3 mps 706 mmHg 32%
02:00 +24°C° 0 mm 3 mps 706 mmHg 31%
03:00 +24°C° 0 mm 3 mps 706 mmHg 31%
04:00 +24°C° 0 mm 3 mps 706 mmHg 30%
05:00 +25°C° 0 mm 3 mps 706 mmHg 30%
06:00 +26°C° 0 mm 3 mps 707 mmHg 29%
07:00 +28°C° 0 mm 3 mps 707 mmHg 26%
08:00 +30°C° 0 mm 2 mps 707 mmHg 23%
09:00 +34°C° 0 mm 2 mps 708 mmHg 20%
10:00 +35°C° 0 mm 3 mps 707 mmHg 19%
11:00 +35°C° 0 mm 4 mps 707 mmHg 19%
12:00 +36°C° 0 mm 4 mps 707 mmHg 18%
13:00 +36°C° 0 mm 5 mps 707 mmHg 19%
14:00 +36°C° 0 mm 5 mps 707 mmHg 19%
15:00 +36°C° 0 mm 5 mps 707 mmHg 20%
16:00 +34°C° 0 mm 4 mps 707 mmHg 23%
17:00 +33°C° 0 mm 3 mps 707 mmHg 26%
18:00 +31°C° 0 mm 2 mps 707 mmHg 29%
19:00 +29°C° 0 mm 3 mps 707 mmHg 31%
20:00 +27°C° 0 mm 3 mps 707 mmHg 34%
21:00 +25°C° 0 mm 3 mps 707 mmHg 37%
22:00 +25°C° 0 mm 3 mps 707 mmHg 37%
23:00 +25°C° 0 mm 3 mps 706 mmHg 36%

Pasado mañana, 5 Agosto, Jueves

Tiempo Temperatura Precipitaciones Viento Presión Humedad
00:00 +25°C° 0 mm 3 mps 706 mmHg 36%
01:00 +25°C° 0 mm 3 mps 706 mmHg 36%
02:00 +25°C° 0 mm 3 mps 706 mmHg 37%
03:00 +25°C° 0 mm 3 mps 706 mmHg 37%
04:00 +26°C° 0 mm 3 mps 706 mmHg 37%
05:00 +27°C° 0 mm 3 mps 706 mmHg 37%
06:00 +27°C° 0 mm 2 mps 707 mmHg 37%
07:00 +29°C° 0 mm 3 mps 707 mmHg 33%
08:00 +31°C° 0 mm 3 mps 707 mmHg 28%
09:00 +35°C° 0 mm 3 mps 707 mmHg 24%
10:00 +35°C° 0 mm 4 mps 707 mmHg 24%
11:00 +36°C° 0 mm 4 mps 707 mmHg 24%
12:00 +36°C° 0 mm 5 mps 707 mmHg 24%
13:00 +36°C° 0 mm 5 mps 707 mmHg 25%
14:00 +36°C° 0 mm 5 mps 706 mmHg 26%
15:00 +35°C° 0 mm 4 mps 706 mmHg 28%
16:00 +34°C° 0 mm 3 mps 706 mmHg 31%
17:00 +32°C° 0 mm 2 mps 706 mmHg 34%
18:00 +31°C° 0 mm 2 mps 706 mmHg 37%
19:00 +29°C° 0.1 mm 2 mps 706 mmHg 40%
20:00 +28°C° 0.1 mm 2 mps 706 mmHg 44%
21:00 +26°C° 0.1 mm 3 mps 706 mmHg 47%
22:00 +26°C° 0.1 mm 3 mps 706 mmHg 47%
23:00 +26°C° 0.1 mm 3 mps 706 mmHg 46%

6 Agosto, Viernes

Tiempo Temperatura Precipitaciones Viento Presión Humedad
00:00 +26°C° 0.1 mm 3 mps 706 mmHg 46%
01:00 +26°C° 0 mm 3 mps 705 mmHg 46%
02:00 +26°C° 0 mm 3 mps 705 mmHg 46%
03:00 +25°C° 0 mm 3 mps 705 mmHg 46%
04:00 +26°C° 0 mm 3 mps 705 mmHg 45%
05:00 +26°C° 0 mm 2 mps 705 mmHg 44%
06:00 +27°C° 0 mm 2 mps 705 mmHg 44%
07:00 +29°C° 0 mm 2 mps 706 mmHg 39%
08:00 +31°C° 0 mm 2 mps 706 mmHg 35%
09:00 +34°C° 0 mm 3 mps 706 mmHg 30%
10:00 +35°C° 0 mm 3 mps 706 mmHg 28%
11:00 +36°C° 0 mm 4 mps 706 mmHg 26%
12:00 +37°C° 0 mm 5 mps 705 mmHg 25%
13:00 +37°C° 0 mm 5 mps 705 mmHg 25%
14:00 +36°C° 0 mm 5 mps 705 mmHg 26%
15:00 +36°C° 0 mm 5 mps 705 mmHg 26%
16:00 +35°C° 0 mm 4 mps 705 mmHg 29%
17:00 +33°C° 0 mm 3 mps 704 mmHg 31%
18:00 +31°C° 0 mm 2 mps 704 mmHg 34%
19:00 +29°C° 0 mm 2 mps 704 mmHg 37%
20:00 +27°C° 0 mm 2 mps 704 mmHg 41%
21:00 +25°C° 0 mm 2 mps 704 mmHg 45%
22:00 +25°C° 0 mm 2 mps 704 mmHg 44%
23:00 +25°C° 0 mm 2 mps 703 mmHg 43%

7 Agosto, Sábado

Tiempo Temperatura Precipitaciones Viento Presión Humedad
00:00 +25°C° 0 mm 2 mps 703 mmHg 42%
01:00 +25°C° 0 mm 2 mps 703 mmHg 41%
02:00 +25°C° 0 mm 3 mps 703 mmHg 40%
03:00 +25°C° 0 mm 3 mps 702 mmHg 39%
04:00 +25°C° 0 mm 2 mps 702 mmHg 38%
05:00 +26°C° 0 mm 2 mps 702 mmHg 36%
06:00 +27°C° 0 mm 2 mps 702 mmHg 35%
07:00 +29°C° 0 mm 2 mps 703 mmHg 30%
08:00 +32°C° 0 mm 2 mps 703 mmHg 26%
09:00 +35°C° 0 mm 2 mps 703 mmHg 21%
10:00 +37°C° 0 mm 3 mps 703 mmHg 20%
11:00 +38°C° 0 mm 3 mps 702 mmHg 19%
12:00 +40°C° 0 mm 4 mps 702 mmHg 18%
13:00 +40°C° 0 mm 4 mps 702 mmHg 19%
14:00 +40°C° 0 mm 4 mps 702 mmHg 20%
15:00 +40°C° 0 mm 4 mps 701 mmHg 21%
16:00 +38°C° 0 mm 3 mps 701 mmHg 25%
17:00 +36°C° 0 mm 3 mps 701 mmHg 29%
18:00 +35°C° 0 mm 2 mps 701 mmHg 33%
19:00 +32°C° 0 mm 2 mps 701 mmHg 35%
20:00 +30°C° 0 mm 3 mps 702 mmHg 38%
21:00 +28°C° 0 mm 3 mps 702 mmHg 40%
22:00 +28°C° 0 mm 3 mps 702 mmHg 39%
23:00 +28°C° 0 mm 3 mps 702 mmHg 38%

8 Agosto, Domingo

Tiempo Temperatura Precipitaciones Viento Presión Humedad
00:00 +28°C° 0 mm 3 mps 702 mmHg 37%
01:00 +27°C° 0 mm 3 mps 702 mmHg 38%
02:00 +27°C° 0 mm 3 mps 703 mmHg 40%
03:00 +26°C° 0 mm 2 mps 703 mmHg 41%
04:00 +27°C° 0 mm 2 mps 703 mmHg 40%
05:00 +28°C° 0 mm 2 mps 704 mmHg 38%
06:00 +28°C° 0 mm 2 mps 704 mmHg 37%
07:00 +30°C° 0 mm 2 mps 704 mmHg 34%
08:00 +32°C° 0 mm 2 mps 705 mmHg 31%
09:00 +35°C° 0 mm 3 mps 705 mmHg 28%
10:00 +35°C° 0 mm 3 mps 705 mmHg 30%
11:00 +36°C° 0 mm 4 mps 705 mmHg 32%
12:00 +36°C° 0 mm 5 mps 705 mmHg 35%
13:00 +35°C° 0.1 mm 4 mps 706 mmHg 37%
14:00 +35°C° 0.1 mm 4 mps 706 mmHg 38%
15:00 +35°C° 0.1 mm 4 mps 706 mmHg 40%
16:00 +34°C° 0.3 mm 3 mps 706 mmHg 44%
17:00 +32°C° 0.3 mm 2 mps 706 mmHg 48%
18:00 +31°C° 0.3 mm 2 mps 706 mmHg 51%
19:00 +29°C° 0.4 mm 2 mps 706 mmHg 56%
20:00 +28°C° 0.4 mm 2 mps 707 mmHg 60%
21:00 +27°C° 0.4 mm 3 mps 707 mmHg 65%
22:00 +26°C° 0 mm 3 mps 707 mmHg 64%
23:00 +26°C° 0 mm 2 mps 707 mmHg 63%
Mostrar más

Necesitamos Su Consentimiento

Meteoprog y nuestros Proveedores de Servicios pueden almacenar y acceder a sus datos personales como cookies, identificadores de dispositivo u otras tecnologías similares de su dispositivo y procesar dichos datos para personalizar contenido y anuncios, además de ofrecer funciones de redes sociales y analizar el tráfico.

  • Almacenar y/o acceder a información en su dispositivo

    Se puede almacenar o acceder a cookies, identificadores de dispositivo u otra información de su dispositivo para los fines anteriormente indicados.

  • Anuncios y contenido personalizados, medición de anuncios y contenido, percepciones del público, y desarrollo de productos

    Los anuncios y el contenido pueden personalizarse en base a su perfil. Se pueden añadir más datos para personalizar mejor los anuncios y contenidos. Se puede medir el rendimiento de los anuncios y contenidos. Se puede obtener la percepción sobre el público que ha visto los anuncios y contenidos. Dichos datos pueden usarse para desarrollar o mejorar la experiencia del usuario, sistemas y software.

Al hacer clic en ‘Estoy De Acuerdo’ usted permitirá el uso de las cookies, identificadores de dispositivo, balizas web u otras tecnologías similares indicadas. Su configuración puede cambiarse desde el navegador de su dispositivo.

Para ciertos fines, los intereses legítimos pueden ser considerados por encima del consentimiento. Puede leer más sobre ello en nuestra Política de Privacidad y Cookies.